TimeEST,TemperatureF,Dew PointF,Humidity,Sea Level PressureIn,VisibilityMPH,Wind Direction,Wind SpeedMPH,Gust SpeedMPH,PrecipitationIn,Events,Conditions,WindDirDegrees,DateUTC
12:15 AM,30.7,26.6,85,30.51,10.0,Calm,Calm,-,N/A,,Overcast,0,2012-11-14 05:15:00
12:35 AM,30.6,26.4,85,30.51,10.0,Calm,Calm,-,N/A,,Overcast,0,2012-11-14 05:35:00
12:55 AM,30.4,26.6,86,30.51,10.0,Calm,Calm,-,N/A,,Scattered Clouds,0,2012-11-14 05:55:00
1:15 AM,29.5,26.2,88,30.52,7.0,Calm,Calm,-,N/A,,Clear,0,2012-11-14 06:15:00
1:35 AM,29.7,26.2,87,30.52,10.0,Calm,Calm,-,N/A,,Clear,0,2012-11-14 06:35:00
1:55 AM,29.7,26.4,88,30.52,10.0,Calm,Calm,-,N/A,,Clear,0,2012-11-14 06:55:00
2:15 AM,28.9,25.7,88,30.52,10.0,Calm,Calm,-,N/A,,Clear,0,2012-11-14 07:15:00
2:35 AM,28.0,24.8,88,30.52,10.0,Calm,Calm,-,N/A,,Clear,0,2012-11-14 07:35:00
2:55 AM,27.9,25.2,90,30.52,10.0,Calm,Calm,-,N/A,,Clear,0,2012-11-14 07:55:00
3:15 AM,28.0,25.3,90,30.51,10.0,Calm,Calm,-,N/A,,Clear,0,2012-11-14 08:15:00
3:35 AM,27.7,25.2,90,30.52,7.0,Calm,Calm,-,N/A,,Clear,0,2012-11-14 08:35:00
3:55 AM,26.6,24.1,90,30.51,10.0,Calm,Calm,-,N/A,,Clear,0,2012-11-14 08:55:00
4:15 AM,26.6,24.1,90,30.52,10.0,Calm,Calm,-,N/A,,Clear,0,2012-11-14 09:15:00
4:35 AM,27.1,24.8,91,30.52,7.0,Calm,Calm,-,N/A,,Clear,0,2012-11-14 09:35:00
4:55 AM,25.3,23.0,91,30.53,10.0,Calm,Calm,-,N/A,,Clear,0,2012-11-14 09:55:00
5:15 AM,25.7,23.2,90,30.54,10.0,Calm,Calm,-,N/A,,Clear,0,2012-11-14 10:15:00
5:35 AM,26.4,23.9,90,30.54,7.0,Calm,Calm,-,N/A,,Clear,0,2012-11-14 10:35:00
6:15 AM,25.0,22.6,91,30.55,10.0,Calm,Calm,-,N/A,,Mostly Cloudy,0,2012-11-14 11:15:00
6:35 AM,25.7,23.4,91,30.55,10.0,Calm,Calm,-,N/A,,Overcast,0,2012-11-14 11:35:00
6:55 AM,26.6,24.4,92,30.56,7.0,Calm,Calm,-,N/A,,Overcast,0,2012-11-14 11:55:00
7:15 AM,27.5,25.3,92,30.56,7.0,Calm,Calm,-,N/A,,Overcast,0,2012-11-14 12:15:00
7:35 AM,27.9,25.3,90,30.57,7.0,Calm,Calm,-,N/A,,Overcast,0,2012-11-14 12:35:00
7:55 AM,28.9,26.4,90,30.57,7.0,Calm,Calm,-,N/A,,Overcast,0,2012-11-14 12:55:00
8:15 AM,29.1,26.2,89,30.56,7.0,Calm,Calm,-,N/A,,Overcast,0,2012-11-14 13:15:00
8:35 AM,30.2,27.3,89,30.56,7.0,Calm,Calm,-,N/A,,Overcast,0,2012-11-14 13:35:00
8:55 AM,30.6,27.3,88,30.57,7.0,Calm,Calm,-,N/A,,Overcast,0,2012-11-14 13:55:00
9:15 AM,31.6,28.2,87,30.57,10.0,Calm,Calm,-,N/A,,Overcast,0,2012-11-14 14:15:00
9:35 AM,32.2,28.4,86,30.58,10.0,Calm,Calm,-,N/A,,Overcast,0,2012-11-14 14:35:00
9:55 AM,33.4,28.8,83,30.57,10.0,Calm,Calm,-,N/A,,Overcast,0,2012-11-14 14:55:00
10:15 AM,34.3,28.8,80,30.57,10.0,Calm,Calm,-,N/A,,Overcast,0,2012-11-14 15:15:00
10:35 AM,35.6,28.8,76,30.57,10.0,Calm,Calm,-,N/A,,Overcast,0,2012-11-14 15:35:00
10:55 AM,36.5,27.7,70,30.57,10.0,Calm,Calm,-,N/A,,Overcast,0,2012-11-14 15:55:00
11:15 AM,37.9,27.7,67,30.56,10.0,Calm,Calm,-,N/A,,Overcast,0,2012-11-14 16:15:00
11:35 AM,38.3,25.9,61,30.55,10.0,Calm,Calm,-,N/A,,Overcast,0,2012-11-14 16:35:00
11:55 AM,38.7,25.9,60,30.54,10.0,Calm,Calm,-,N/A,,Overcast,0,2012-11-14 16:55:00
12:15 PM,37.8,24.6,59,30.53,10.0,Calm,Calm,-,N/A,,Mostly Cloudy,0,2012-11-14 17:15:00
12:35 PM,37.8,24.8,60,30.51,10.0,Calm,Calm,-,N/A,,Scattered Clouds,0,2012-11-14 17:35:00
12:55 PM,39.2,24.8,56,30.50,10.0,Calm,Calm,-,N/A,,Clear,0,2012-11-14 17:55:00
1:15 PM,39.6,25.2,56,30.49,10.0,Calm,Calm,-,N/A,,Clear,0,2012-11-14 18:15:00
9:35 PM,30.0,25.9,85,30.48,10.0,Calm,Calm,-,N/A,,Clear,0,2012-11-15 02:35:00
9:55 PM,30.0,26.4,86,30.48,7.0,Calm,Calm,-,N/A,,Clear,0,2012-11-15 02:55:00
10:15 PM,29.1,25.9,88,30.47,10.0,Calm,Calm,-,N/A,,Clear,0,2012-11-15 03:15:00
10:35 PM,28.9,25.9,88,30.47,10.0,Calm,Calm,-,N/A,,Clear,0,2012-11-15 03:35:00
10:55 PM,26.6,23.5,88,30.47,10.0,Calm,Calm,-,N/A,,Clear,0,2012-11-15 03:55:00
11:15 PM,25.7,22.8,89,30.46,7.0,Calm,Calm,-,N/A,,Clear,0,2012-11-15 04:15:00
11:35 PM,25.9,22.8,88,30.44,7.0,Calm,Calm,-,N/A,,Clear,0,2012-11-15 04:35:00
11:55 PM,25.7,23.0,89,30.44,7.0,Calm,Calm,-,N/A,,Clear,0,2012-11-15 04:55:00